| time (UTC) | temp F | wind direction | speed knots | gust knots | rain 1hr in | rain 24hr in | rain mn in | humidity % | barometer mb |
| 20260503192529 | 64 | 317 | 5.2 | 7.8 | 0.00 | 0.00 | 0.00 | 38 | 1010.7 |
| 20260503191025 | 64 | 301 | 1.7 | 9.6 | 0.00 | 0.00 | 0.00 | 38 | 1011.1 |
| 20260503185521 | 64 | 278 | 5.2 | 13.0 | 0.00 | 0.00 | 0.00 | 36 | 1011.3 |
| 20260503184019 | 63 | 233 | 5.2 | 16.5 | 0.00 | 0.00 | 0.00 | 38 | 1011.3 |
| 20260503182517 | 60 | 260 | 2.6 | 6.1 | 0.00 | 0.00 | 0.00 | 40 | 1011.6 |
| 20260503181014 | 61 | 70 | 2.6 | 16.5 | 0.00 | 0.00 | 0.00 | 39 | 1012.1 |
| 20260503175512 | 62 | 183 | 4.3 | 15.6 | 0.00 | 0.00 | 0.00 | 40 | 1011.8 |
| 20260503174008 | 60 | 229 | 1.7 | 7.8 | 0.00 | 0.00 | 0.00 | 43 | 1012.4 |
| 20260503172504 | 60 | 245 | 4.3 | 7.8 | 0.00 | 0.00 | 0.00 | 42 | 1012.6 |
| 20260503171000 | 60 | 272 | 4.3 | 7.8 | 0.00 | 0.00 | 0.00 | 42 | 1013.0 |
| 20260503150936 | 59 | 253 | 3.5 | 11.3 | 0.00 | 0.00 | 0.00 | 41 | 1013.6 |
| 20260503130910 | 50 | 315 | 5.2 | 7.8 | 0.00 | 0.00 | 0.00 | 49 | 1014.1 |
| 20260503080819 | 38 | 272 | 1.7 | 1.7 | 0.00 | 0.00 | 0.00 | 59 | 1015.3 |
| 20260503072308 | 36 | 218 | 0.0 | 0.0 | 0.00 | 0.00 | 0.00 | 62 | 1015.4 |
| 20260503070803 | 35 | 299 | 0.0 | 0.9 | 0.00 | 0.00 | 0.00 | 65 | 1015.5 |
| 20260503053744 | 33 | 118 | 0.0 | 0.0 | 0.00 | 0.00 | 0.00 | 76 | 1016.1 |
| 20260503052241 | 34 | 188 | 0.0 | 0.0 | 0.00 | 0.00 | 0.00 | 76 | 1016.2 |
| 20260503050736 | 34 | 145 | 0.0 | 0.0 | 0.00 | 0.00 | 0.00 | 77 | 1016.2 |
| 20260503045234 | 34 | 150 | 0.0 | 0.0 | 0.00 | 0.00 | 0.00 | 76 | 1016.2 |
| 20260503043730 | 34 | 112 | 0.0 | 0.0 | 0.00 | 0.00 | 0.00 | 78 | 1016.2 |
| 20260503042226 | 33 | 193 | 0.0 | 0.0 | 0.00 | 0.00 | 0.00 | 80 | 1016.3 |
| 20260503040723 | 33 | 201 | 0.0 | 0.0 | 0.00 | 0.00 | 0.00 | 83 | 1016.8 |
| 20260503035221 | 33 | 202 | 0.0 | 0.0 | 0.00 | 0.00 | 0.00 | 83 | 1016.7 |
| 20260503033718 | 32 | 202 | 0.0 | 0.0 | 0.00 | 0.00 | 0.00 | 84 | 1016.5 |
| 20260503032218 | 33 | 202 | 0.0 | 0.0 | 0.00 | 0.00 | 0.00 | 83 | 1016.8 |
| 20260503030714 | 33 | 202 | 0.0 | 0.0 | 0.00 | 0.00 | 0.00 | 83 | 1016.7 |
| 20260503025211 | 34 | 202 | 0.0 | 0.0 | 0.00 | 0.00 | 0.00 | 82 | 1016.8 |
| 20260503023707 | 34 | 202 | 0.0 | 0.0 | 0.00 | 0.00 | 0.00 | 80 | 1016.8 |
| 20260503022205 | 35 | 202 | 0.0 | 0.0 | 0.00 | 0.00 | 0.00 | 78 | 1016.9 |
| 20260503020702 | 35 | 202 | 0.0 | 0.0 | 0.00 | 0.00 | 0.00 | 77 | 1017.0 |
| 20260503015158 | 36 | 202 | 0.0 | 0.0 | 0.00 | 0.00 | 0.00 | 74 | 1017.0 |
| 20260503013655 | 37 | 202 | 0.0 | 0.0 | 0.00 | 0.00 | 0.00 | 70 | 1016.7 |
| 20260503012152 | 37 | 202 | 0.0 | 0.0 | 0.00 | 0.00 | 0.00 | 68 | 1016.9 |
| 20260503010647 | 39 | 202 | 0.0 | 0.0 | 0.00 | 0.00 | 0.00 | 65 | 1016.8 |
| 20260503005145 | 40 | 202 | 0.0 | 0.0 | 0.00 | 0.00 | 0.00 | 61 | 1016.7 |
| 20260503003642 | 42 | 202 | 0.0 | 0.0 | 0.00 | 0.00 | 0.00 | 56 | 1016.6 |
| 20260503002138 | 44 | 209 | 0.0 | 0.0 | 0.00 | 0.00 | 0.00 | 53 | 1016.3 |
| 20260503000635 | 45 | 304 | 0.0 | 0.9 | 0.00 | 0.00 | 0.00 | 50 | 1016.6 |
| 20260502235132 | 46 | 287 | 0.0 | 3.5 | 0.00 | 0.00 | 0.00 | 47 | 1016.5 |
| 20260502233632 | 47 | 317 | 0.9 | 3.5 | 0.00 | 0.00 | 0.00 | 47 | 1016.7 |
| 20260502232129 | 48 | 67 | 0.0 | 1.7 | 0.00 | 0.00 | 0.00 | 45 | 1016.7 |
| 20260502230627 | 48 | 314 | 0.9 | 3.5 | 0.00 | 0.00 | 0.00 | 45 | 1016.7 |
| 20260502225124 | 47 | 50 | 0.0 | 0.9 | 0.00 | 0.00 | 0.00 | 47 | 1016.9 |
| 20260502223621 | 47 | 325 | 0.0 | 3.5 | 0.00 | 0.00 | 0.00 | 46 | 1017.0 |
| 20260502222118 | 47 | 314 | 0.0 | 3.5 | 0.00 | 0.00 | 0.00 | 48 | 1016.8 |
| 20260502220614 | 48 | 20 | 0.0 | 5.2 | 0.00 | 0.00 | 0.00 | 47 | 1016.8 |
| 20260502215110 | 48 | 267 | 0.0 | 0.9 | 0.00 | 0.00 | 0.00 | 47 | 1016.8 |
| 20260502213608 | 47 | 240 | 1.7 | 2.6 | 0.00 | 0.00 | 0.00 | 46 | 1016.7 |
| 20260502212107 | 48 | 278 | 0.9 | 3.5 | 0.00 | 0.00 | 0.00 | 44 | 1016.8 |
| 20260502210603 | 47 | 226 | 0.9 | 2.6 | 0.00 | 0.00 | 0.00 | 45 | 1016.9 |
| 20260502205059 | 47 | 270 | 1.7 | 3.5 | 0.00 | 0.00 | 0.00 | 46 | 1016.9 |
| 20260502203556 | 48 | 296 | 0.0 | 2.6 | 0.00 | 0.00 | 0.00 | 47 | 1017.0 |
| 20260502202054 | 47 | 237 | 1.7 | 7.8 | 0.00 | 0.00 | 0.00 | 45 | 1017.1 |
| 20260502200554 | 47 | 232 | 0.9 | 1.7 | 0.00 | 0.00 | 0.00 | 45 | 1017.3 |
| 20260502195051 | 47 | 336 | 0.9 | 3.5 | 0.00 | 0.00 | 0.00 | 45 | 1017.4 |
| 20260502193547 | 47 | 320 | 0.0 | 1.7 | 0.00 | 0.00 | 0.00 | 47 | 1017.5 |